Tracking 20710 objects as of 30-May-2020
HD Live streaming from Space Station
objects crossing your sky now

OV1-5 DEB

Track OV1-5 DEB now!
10-day predictions


NORAD ID: 5361
Int'l Code: 1966-025G
Perigee: 792.4 km
Apogee: 841.2 km
Inclination: 144.6 °
Period: 101.1 minutes
Semi major axis: 7187 km
RCS: 0.0096 m2 (small)
Launch date: March 30, 1966
Source: United States (US)
Launch site: AIR FORCE WESTERN TEST RANGE (AFWTR)

Note: This is SATELLITE DEBRIS
aabbcc
Your satellite tracking list
Your tracking list is empty




NASA's NSSDC Master Catalog

Two Line Element Set (TLE):
1  5361U 66025G   20150.68170037  .00000795  00000-0  20814-3 0  9993
2  5361 144.6180 179.8607 0033913   5.9235 354.1857 14.24649867 51495
Source of the keplerian elements: AFSPC